Regional Weather Roundup
Issued by NWS Cleveland, OH

Current Version | Previous Version | Text Only | Print | Product List | Glossary On
Versions: 1 2 3 4 5 6 7 8 9 10 11 12 13 14 15 16 17 18 19 20 21 22 23 24 25 26 27 28 29 30 31 32 33 34 35 36 37 38 39 40 41 42 43 44 45 46 47 48 49 50
000
ASUS41 KCLE 250712
RWRCLE
OHIO REGIONAL WEATHER ROUNDUP
NATIONAL WEATHER SERVICE WILMINGTON, OH
300 AM EDT SUN AUG 25 2019

NOTE: "FAIR" INDICATES FEW OR NO CLOUDS BELOW 12,000 FEET WITH NO
SIGNIFICANT WEATHER AND/OR OBSTRUCTIONS TO VISIBILITY.

OHZ001>008-015>018-024>027-034-035-043-044-250800-
   NORTHWEST OHIO

CITY           SKY/WX    TMP DP  RH WIND       PRES   REMARKS
DEFIANCE       FAIR      57  53  86 NE3       30.21F
FINDLAY        FAIR      61  54  77 E6        30.20F
TOLEDO EXPRESS FAIR      58  53  84 CALM      30.21F
TOLEDO EXEC    CLOUDY    62  54  74 SE7       30.22F
LIMA           FAIR      57  53  86 E7        30.20S
$$

OHZ009>014-019>023-028>033-038-089-250800-
   NORTHEAST OHIO

CITY           SKY/WX    TMP DP  RH WIND       PRES   REMARKS
CLE-HOPKINS    FAIR      62  52  69 E6        30.24F
CLE-LAKEFRONT  FAIR      64  52  64 E9        30.22F
CUY CO. ARPT   FAIR      59  53  78 SE6       30.25S
LORAIN-ELYRIA  FAIR      56  49  77 E6        30.23F
ASHTABULA      FAIR      53  52  96 SE3       30.25F
AKRON-CANTON   FAIR      57  53  86 E8        30.23F
WOOSTER        FAIR      54  51  90 E6        30.22F
MANSFIELD      FAIR      58  53  84 E8        30.21F
YOUNGSTOWN     FAIR      54  51  90 E6        30.24F
$$

OHZ042-051>053-060>062-070>072-077>081-250800-
  SOUTHWEST OHIO

CITY           SKY/WX    TMP DP  RH WIND       PRES   REMARKS
CINC-COVINGTON FAIR      65  51  60 E10       30.13F
CINC-LUNKEN    FAIR      57  55  93 CALM      30.15S
HAMILTON       FAIR      60  53  77 E5        30.16S
DAYTON         FAIR      59  54  83 NE8       30.18F
WRIGHT-PAT AFB FAIR      57  53  87 NE6       30.17S
DAYTON GENERAL FAIR      60  52  74 E10       30.16S
WILMINGTON     FAIR      56  52  86 NE8       30.16S
$$

OHZ036-037-039>041-045>050-054>059-063>069-073>076-082>088-250800-
  CENTRAL AND SOUTHEAST OHIO

CITY           SKY/WX    TMP DP  RH WIND       PRES   REMARKS
COLUMBUS       FAIR      60  51  72 E9        30.17F
OSU AIRPORT    FAIR      59  52  77 NE7       30.18F
BOLTON FIELD   FAIR      59  52  78 NE3       30.18F
RICKENBACK AFB NOT AVBL
NEWARK         FAIR      56  51  84 CALM      30.18F
MARION         FAIR      56  51  84 E5        30.20F
LANCASTER      FAIR      52  50  93 CALM      30.18F
ZANESVILLE     FAIR      58  50  75 N5        30.18F
NEW PHILLY     FAIR      53  51  93 CALM      30.22F
$$



USA.gov is the U.S. government's official web portal to all federal, state and local government web resources and services.